Latest Coastal Weather Observations for Browse Island

IDW60701

Issued at 12:53 pm WST Monday 18 December 2017 (issued every 10 minutes, with the page automatically refreshed every 10 minutes)

About coastal observations | Map of coastal stations | Coastal observations for WA | Marine services | Other Formats
Station Details ID: 200784 Name: BROWSE ISLAND Lat: -14.11 Lon: 123.55 Height: 3.7 m
Data from the previous 72 hours. | See also: Recent months at Browse Island
Date/Time
WST
Temp
°C
Wind Pressure Rain since
9am
mm
Weather Cloud Vis
km
Sea
Height
m
Swell
Dir  Spd
kts
Gust
kts
hPa Trend Height
m
Period
s
Dir
18/12:30pm 31.0 SW 5 - 1006.0 - - - - - - - - -
18/12:00pm 30.5 SSW 6 - 1007.4 - - - - - - - - -
18/11:30am 31.0 SW 5 - 1007.0 - - - - - - - - -
18/11:00am 30.4 SW 6 - 1008.0 - - - - - - - - -
18/10:30am 30.0 SW 5 - 1008.0 - - - - - - - - -
18/10:00am 30.1 SSW 6 - 1008.2 - - - - - - - - -
18/09:30am 30.0 SSW 6 - 1008.0 - - - - - - - - -
18/09:00am 29.9 SSW 5 - 1008.4 - - - - - - - - -
18/08:30am 30.0 SW 5 - 1008.0 - - - - - - - - -
18/08:00am 29.8 SW 5 - 1008.2 - - - - - - - - -
18/07:30am 30.0 SW 5 - 1008.0 - - - - - - - - -
18/07:00am 29.7 SSW 5 - 1008.0 - - - - - - - - -
18/06:30am 30.0 SW 4 - 1007.0 - - - - - - - - -
18/06:00am 29.4 WSW 5 - 1007.6 - - - - - - - - -
18/05:30am 29.0 SW 5 - 1007.0 - - - - - - - - -
18/05:00am 29.3 WSW 6 - 1006.5 - - - - - - - - -
18/04:30am 29.0 WSW 5 - 1006.0 - - - - - - - - -
18/04:00am 29.3 WSW 7 - 1005.7 - - - - - - - - -
18/03:30am 29.0 SW 6 - 1005.0 - - - - - - - - -
18/03:00am 29.3 WSW 5 - 1005.6 - - - - - - - - -
18/02:30am 30.0 SW 6 - 1006.0 - - - - - - - - -
18/02:00am 29.5 SW 8 - 1006.1 - - - - - - - - -
18/01:30am 30.0 WSW 6 - 1006.0 - - - - - - - - -
18/01:00am 29.6 SW 7 - 1006.9 - - - - - - - - -
18/12:30am 30.0 SSW 8 - 1007.0 - - - - - - - - -
18/12:00am 29.7 SSW 8 9 1007.9 - - - - - - - - -
 
Date/Time
WST
Temp
°C
Wind Pressure Rain since
9am
mm
Weather Cloud Vis
km
Sea
Height
m
Swell
Dir  Spd
kts
Gust
kts
hPa Trend Height
m
Period
s
Dir
17/11:30pm 30.0 SSW 9 - 1008.0 - - - - - - - - -
17/11:00pm 30.0 SSW 10 - 1008.3 - - - - - - - - -
17/10:30pm 30.0 SW 8 - 1008.0 - - - - - - - - -
17/10:00pm 30.2 SW 10 - 1008.5 - - - - - - - - -
17/09:30pm 30.0 SSW 7 - 1009.0 - - - - - - - - -
17/09:00pm 30.3 SW 6 - 1008.9 - - - - - - - - -
17/08:30pm 30.0 WSW 8 - 1008.0 - - - - - - - - -
17/08:00pm 30.1 W 8 - 1007.2 - - - - - - - - -
17/07:30pm 30.0 WSW 8 - 1007.0 - - - - - - - - -
17/07:00pm 30.2 WSW 7 - 1006.8 - - - - - - - - -
17/06:30pm 30.0 WSW 8 - 1006.0 - - - - - - - - -
17/06:00pm 30.2 WSW 7 - 1006.7 - - - - - - - - -
17/05:30pm 30.0 WSW 6 - 1006.0 - - - - - - - - -
17/05:00pm 30.5 WSW 7 - 1006.5 - - - - - - - - -
17/04:30pm 31.0 WSW 7 - 1006.0 - - - - - - - - -
17/04:00pm 30.6 W 7 - 1006.4 - - - - - - - - -
17/03:30pm 31.0 W 8 - 1006.0 - - - - - - - - -
17/03:00pm 30.6 W 7 - 1006.2 - - - - - - - - -
17/02:30pm 31.0 WSW 9 - 1006.0 - - - - - - - - -
17/02:00pm 30.6 WSW 8 - 1006.7 - - - - - - - - -
17/01:30pm 31.0 SW 7 - 1007.0 - - - - - - - - -
17/01:00pm 30.6 SW 6 - 1007.5 - - - - - - - - -
17/12:30pm 31.0 SW 6 - 1008.0 - - - - - - - - -
17/12:00pm 30.5 SW 6 - 1008.3 - - - - - - - - -
17/11:30am 31.0 SSW 5 - 1008.0 - - - - - - - - -
17/11:00am 30.9 SSW 4 - 1008.9 - - - - - - - - -
17/10:30am 31.0 SW 4 - 1009.0 - - - - - - - - -
17/10:00am 30.4 SSW 5 - 1009.0 - - - - - - - - -
17/09:30am 31.0 SSW 5 - 1009.0 - - - - - - - - -
17/09:00am 30.1 SSW 5 - 1008.9 - - - - - - - - -
17/08:30am 30.0 SSW 5 - 1009.0 - - - - - - - - -
17/08:00am 30.1 SSW 4 - 1008.9 - - - - - - - - -
17/07:30am 30.0 SSW 3 - 1009.0 - - - - - - - - -
17/07:00am 29.6 SSW 2 - 1008.7 - - - - - - - - -
17/06:30am 30.0 SSW 4 - 1008.0 - - - - - - - - -
17/06:00am 29.4 SW 4 - 1008.1 - - - - - - - - -
17/05:30am 29.0 CALM 0 - 1007.0 - - - - - - - - -
17/05:00am 29.4 SW 3 - 1007.5 - - - - - - - - -
17/04:30am 29.0 WSW 3 - 1007.0 - - - - - - - - -
17/04:00am 29.4 SW 4 - 1007.2 - - - - - - - - -
17/03:30am 30.0 SSW 5 - 1007.0 - - - - - - - - -
17/03:00am 29.5 SSW 4 - 1007.3 - - - - - - - - -
17/02:30am 30.0 WSW 5 - 1007.0 - - - - - - - - -
17/02:00am 29.6 SW 8 - 1007.3 - - - - - - - - -
17/01:30am 30.0 WSW 9 - 1007.0 - - - - - - - - -
17/01:00am 29.6 SW 9 - 1007.4 - - - - - - - - -
17/12:30am 30.0 WSW 9 - 1007.0 - - - - - - - - -
17/12:00am 29.7 SW 9 - 1007.7 - - - - - - - - -
 
Date/Time
WST
Temp
°C
Wind Pressure Rain since
9am
mm
Weather Cloud Vis
km
Sea
Height
m
Swell
Dir  Spd
kts
Gust
kts
hPa Trend Height
m
Period
s
Dir
16/11:30pm 30.0 WSW 8 - 1008.0 - - - - - - - - -
16/11:00pm 29.8 WSW 8 - 1008.3 - - - - - - - - -
16/10:30pm 30.0 WSW 8 - 1008.0 - - - - - - - - -
16/10:00pm 30.0 SW 7 - 1008.7 - - - - - - - - -
16/09:30pm 30.0 SW 8 - 1008.0 - - - - - - - - -
16/09:00pm 30.0 SSW 9 - 1008.2 - - - - - - - - -
16/08:30pm 30.0 SW 8 - 1008.0 - - - - - - - - -
16/08:00pm 29.9 SW 8 - 1007.8 - - - - - - - - -
16/07:30pm 30.0 SW 9 - 1007.0 - - - - - - - - -
16/07:00pm 30.0 SSW 8 - 1007.5 - - - - - - - - -
16/06:30pm 30.0 SW 9 - 1007.0 - - - - - - - - -
16/06:00pm 30.0 SW 9 - 1007.2 - - - - - - - - -
16/05:30pm 30.0 SSW 12 - 1006.0 - - - - - - - - -
16/05:00pm 30.2 SW 10 - 1006.5 - - - - - - - - -
16/04:30pm 30.0 SW 10 - 1006.0 - - - - - - - - -
16/04:00pm 30.4 SW 10 - 1006.3 - - - - - - - - -
16/03:30pm 30.0 SW 10 - 1006.0 - - - - - - - - -
16/03:00pm 30.4 SW 10 - 1006.3 - - - - - - - - -
16/02:30pm 30.0 SW 11 - 1006.0 - - - - - - - - -
16/02:00pm 30.3 SW 11 - 1006.7 - - - - - - - - -
16/01:30pm 31.0 WSW 11 - 1007.0 - - - - - - - - -
16/01:00pm 30.3 W 10 - 1007.5 - - - - - - - - -
16/12:30pm 30.0 W 11 - 1007.0 - - - - - - - - -
16/12:00pm 30.2 W 10 - 1008.2 - - - - - - - - -
16/11:30am 30.0 W 11 - 1008.0 - - - - - - - - -
16/11:00am 29.9 W 10 - 1008.6 - - - - - - - - -
16/10:30am 30.0 W 10 - 1009.0 - - - - - - - - -
16/10:00am 30.0 W 9 - 1009.2 - - - - - - - - -
16/09:30am 30.0 W 9 - 1009.0 - - - - - - - - -
16/09:00am 30.0 WSW 7 - 1009.6 - - - - - - - - -
16/08:30am 30.0 SW 8 - 1009.0 - - - - - - - - -
16/08:00am 29.5 WNW 5 - 1009.3 - - - - - - - - -
16/07:30am 29.0 N 6 - 1009.0 - - - - - - - - -
16/07:00am 29.9 SSE 4 - 1008.9 - - - - - - - - -
16/06:30am 30.0 S 6 - 1009.0 - - - - - - - - -
16/06:00am 30.0 S 9 - 1009.4 - - - - - - - - -
16/05:30am 30.0 S 14 - 1009.0 - - - - - - - - -
16/05:00am 29.1 SSE 6 - 1008.9 - - - - - - - - -
16/04:32am 29.0 SE 17 27 1008.0 - - - - - - - - -
16/04:30am 28.0 SE 19 - 1008.0 - - - - - - - - -
16/04:25am 27.0 SE 25 - 1008.0 - - - - - - - - -
16/04:11am 28.0 SSE 21 - 1008.0 - - - - - - - - -
16/04:00am 30.0 SSW 16 - 1008.5 - - - - - - - - -
16/03:30am 30.0 SSW 16 - 1007.0 - - - - - - - - -
16/03:00am 29.8 SSW 16 - 1007.3 - - - - - - - - -
16/02:30am 30.0 SSW 17 - 1007.0 - - - - - - - - -
16/02:00am 29.9 WSW 13 - 1007.2 - - - - - - - - -
16/01:30am 30.0 WSW 14 - 1007.0 - - - - - - - - -
16/01:00am 29.4 W 16 - 1006.5 - - - - - - - - -
16/12:30am 29.0 W 16 - 1006.0 - - - - - - - - -
16/12:00am 29.2 WNW 17 - 1006.3 - - - - - - - - -
 
Date/Time
WST
Temp
°C
Wind Pressure Rain since
9am
mm
Weather Cloud Vis
km
Sea
Height
m
Swell
Dir  Spd
kts
Gust
kts
hPa Trend Height
m
Period
s
Dir
15/11:30pm 29.0 WNW 17 - 1006.0 - - - - - - - - -
15/11:00pm 29.2 W 15 - 1007.4 - - - - - - - - -
15/10:30pm 29.0 WSW 11 - 1008.0 - - - - - - - - -
15/10:00pm 29.2 WSW 9 - 1008.3 - - - - - - - - -
15/09:30pm 29.0 W 8 - 1008.0 - - - - - - - - -
15/09:00pm 28.9 NW 10 - 1008.3 - - - - - - - - -
15/08:30pm 29.0 NW 11 - 1008.0 - - - - - - - - -
15/08:00pm 28.4 NW 12 - 1007.5 - - - - - - - - -
15/07:30pm 28.0 NW 9 - 1007.0 - - - - - - - - -
15/07:00pm 28.2 NW 11 - 1006.9 - - - - - - - - -
15/06:30pm 28.0 NNW 12 - 1006.0 - - - - - - - - -
15/06:00pm 28.0 NNW 12 - 1006.2 - - - - - - - - -
15/05:30pm 28.0 NNW 12 - 1006.0 - - - - - - - - -
15/05:00pm 27.6 N 14 - 1006.1 - - - - - - - - -
15/04:30pm 27.0 N 10 - 1006.0 - - - - - - - - -
15/04:00pm 26.9 N 11 - 1006.9 - - - - - - - - -
15/03:30pm 27.0 W 8 - 1006.0 - - - - - - - - -
15/03:00pm 26.3 WNW 9 - 1006.6 - - - - - - - - -
15/02:30pm 26.0 N 7 - 1008.0 - - - - - - - - -
15/02:06pm 26.0 ENE 16 - 1008.0 - - - - - - - - -
15/02:00pm 26.6 NNE 21 - 1007.8 - - - - - - - - -
15/01:30pm 27.0 NE 17 - 1007.0 - - - - - - - - -
15/01:21pm 27.0 NE 15 - 1008.0 - - - - - - - - -
15/01:00pm 30.6 SW 8 - 1007.8 - - - - - - - - -

Other Formats:

Comma delimited format used in spreadsheet applications
http://www.bom.gov.au/fwo/IDW60701/IDW60701.94103.axf

JavaScript Object Notation format (JSON) in row-major order
http://www.bom.gov.au/fwo/IDW60701/IDW60701.94103.json